[[{"header":{"parameterUnit":"m.s-1","parameterCategory":1,"la1":30.2991,"la2":30.254,"lo1":-89.0895,"lo2":-89.0444,"dy":0.0017,"dx":0.0017,"nx":28,"ny":28,"refTime":"2025-01-30T09:00:00:Z","depth":0,"parameterNumber":2,"parameterNumberName":"U-component_of_WINDS"},"data":[0,0,0,0,0,0,0,0,0,0,0,0,0,0,0,0,0,0,0,0,0,0,0,0,0,0,0,0,0,0,0,0,0,0,0,0,0,0,0,0,0,0,0,0,0,0,0,0,0,0,0,0,0,0,0,0,0,0,-0.4588,-0.4588,0,-0.4574,-0.4574,-0.4574,-0.4581,-0.4581,-0.4582,-0.4582,-0.4567,-0.4566,-0.4565,0,0,0,0,0,0,0,0,0,0,0,0,0,-0.4618,-0.4618,-0.4588,-0.4588,-0.4587,-0.4574,-0.4574,-0.4574,-0.4581,-0.4581,-0.4582,-0.4582,-0.4567,-0.4566,-0.4565,0,0,0,0,0,0,0,0,0,0,0,0,0,-0.4605,-0.4618,-0.4588,-0.4589,-0.4589,-0.4574,-0.4574,-0.4574,-0.4581,-0.4581,-0.4582,-0.4582,-0.4567,-0.4566,-0.4565,-0.4547,0,0,-0.4562,-0.4561,0,0,0,0,0,0,0,0,-0.4606,-0.4604,-0.4589,-0.4589,-0.4589,-0.458,-0.4579,-0.4565,-0.4581,-0.4584,-0.4582,-0.4583,-0.4571,-0.4569,-0.4565,-0.4547,-0.4546,-0.4562,-0.4561,-0.4561,-0.456,0,0,0,0,0,0,0,-0.4607,-0.4604,-0.4582,-0.4589,-0.4589,-0.459,-0.4589,-0.4577,-0.4574,-0.4584,-0.4584,-0.4582,-0.4571,-0.4567,-0.4565,-0.4546,-0.4562,-0.4561,-0.456,-0.456,-0.4511,-0.451,0,0,0,0,0,0,-0.4608,-0.4605,-0.4583,-0.4582,-0.4599,-0.4589,-0.4588,-0.4582,-0.4574,-0.4574,-0.4582,-0.4583,-0.4568,-0.4566,-0.4565,-0.4543,-0.4561,-0.4559,-0.4559,-0.4512,-0.4511,-0.451,0,0,0,0,0,0,-0.4608,-0.4606,-0.4583,-0.4594,-0.4591,-0.4588,-0.4582,-0.4582,-0.4578,-0.4573,-0.4573,-0.4578,-0.4569,-0.4566,-0.4552,-0.4542,-0.4559,-0.4558,-0.4512,-0.4511,-0.4511,-0.4499,0,0,0,0,0,0,-0.4609,-0.4606,-0.4599,-0.4593,-0.459,-0.4571,-0.4581,-0.4581,-0.4576,-0.4577,-0.457,-0.4569,-0.4569,-0.4553,-0.455,-0.4541,-0.4557,-0.4513,-0.4512,-0.4511,-0.45,-0.4498,-0.4496,0,0,0,0,0,-0.461,-0.4597,-0.4599,-0.4596,-0.4582,-0.457,-0.4568,-0.4569,-0.4575,-0.4568,-0.4565,-0.4569,-0.4544,-0.4552,-0.4549,-0.4539,-0.4514,-0.4512,-0.4511,-0.4501,-0.4498,-0.4496,0,0,0,0,0,0,-0.4601,-0.4596,-0.4598,-0.4583,-0.4577,-0.4571,-0.4563,-0.4566,-0.4558,-0.4559,-0.456,-0.4558,-0.4542,-0.4539,-0.4548,-0.4521,-0.453,-0.4528,-0.4523,-0.4521,-0.4518,-0.4519,-0.4556,0,0,0,0,0,-0.4597,-0.4588,-0.4584,-0.457,-0.4568,-0.4566,-0.456,-0.4561,-0.4555,-0.4553,-0.4549,-0.4542,-0.4533,-0.4527,-0.4518,-0.45,-0.4498,-0.4492,-0.449,-0.4488,-0.4486,-0.4475,-0.4472,-0.4506,-0.4506,-0.4506,0,0,-0.4589,-0.4585,-0.458,-0.4569,-0.4564,-0.4554,-0.4564,-0.4553,-0.4546,-0.4551,-0.4537,-0.4534,-0.4527,-0.451,-0.4503,-0.4507,-0.4476,-0.4486,-0.4485,-0.4484,-0.4474,-0.447,-0.4468,-0.4505,-0.4505,-0.4505,0,0,-0.4569,-0.4566,-0.4554,-0.4549,-0.4543,-0.4541,-0.4539,-0.4533,-0.4531,-0.4517,-0.452,-0.4511,-0.4495,-0.449,-0.4485,-0.4463,-0.4466,-0.446,-0.4448,-0.4438,-0.4435,-0.4433,-0.4424,-0.4421,-0.4458,-0.4458,-0.4458,0,-0.456,-0.4546,-0.4547,-0.4536,-0.4531,-0.4536,-0.4523,-0.4518,-0.4509,-0.4505,-0.451,-0.449,-0.4485,-0.4467,-0.4462,-0.4458,-0.4454,-0.446,-0.4436,-0.4433,-0.4431,-0.4423,-0.442,-0.4457,-0.4457,-0.4458,-0.4458,0,-0.4534,-0.4524,-0.4515,-0.4506,-0.45,-0.4488,-0.4487,-0.4481,-0.4482,-0.448,-0.4466,-0.446,-0.445,-0.4446,-0.4447,-0.4428,-0.4431,-0.4436,-0.4445,-0.4427,-0.4419,-0.4416,-0.4456,-0.4457,-0.4457,-0.4457,0,0,-0.4508,-0.45,-0.4497,-0.4492,-0.4485,-0.4477,-0.4466,-0.4456,-0.445,-0.4443,-0.4433,-0.4419,-0.4424,-0.4418,-0.4419,-0.441,-0.4392,-0.4416,-0.4416,-0.4411,-0.4369,-0.4365,-0.4361,-0.4394,-0.4393,-0.4393,-0.437,0,-0.4488,-0.4467,-0.4468,-0.4449,-0.4439,-0.4443,-0.4433,-0.4427,-0.4425,-0.4416,-0.4414,-0.4404,-0.4411,-0.4407,-0.4399,-0.4396,-0.4383,-0.4397,-0.4383,-0.4383,-0.4384,-0.4357,-0.4353,-0.4331,-0.4367,-0.4366,-0.4366,0,-0.4461,-0.4453,-0.4433,-0.4427,-0.4423,-0.4413,-0.4404,-0.4396,-0.4389,-0.4388,-0.4382,-0.4384,-0.4371,-0.4381,-0.4363,-0.4373,-0.4367,-0.4365,-0.4364,-0.4362,-0.4373,-0.4354,-0.4324,-0.4321,-0.4361,-0.4361,-0.4362,0,-0.4443,-0.4428,-0.4413,-0.441,-0.4402,-0.4395,-0.4392,-0.4386,-0.438,-0.4372,-0.4368,-0.4358,-0.4353,-0.4345,-0.4344,-0.4352,-0.4326,-0.4336,-0.4324,-0.4324,-0.4318,-0.4319,-0.4287,-0.4316,-0.4316,-0.4316,-0.4316,0,-0.4419,-0.4406,-0.4405,-0.4396,-0.4382,-0.4383,-0.4368,-0.4365,-0.436,-0.435,-0.4353,-0.4344,-0.4344,-0.4334,-0.4333,-0.4318,-0.4316,-0.4314,-0.4314,-0.4314,-0.4314,-0.4309,-0.4311,-0.4315,-0.4315,-0.4316,-0.4316,0,-0.4397,-0.4395,-0.438,-0.4374,-0.4372,-0.4362,-0.4357,-0.4348,-0.4346,-0.4334,-0.4331,-0.4328,-0.4317,-0.4315,-0.4302,-0.4301,-0.4283,-0.4285,-0.4285,-0.4285,-0.4274,-0.4274,-0.4237,-0.4232,-0.4265,-0.4265,-0.4265,0,-0.4381,-0.4372,-0.4365,-0.4358,-0.4354,-0.4344,-0.4338,-0.4338,-0.4332,-0.4323,-0.4315,-0.4304,-0.4296,-0.4277,-0.4274,-0.4264,-0.4265,-0.4252,-0.4263,-0.4263,-0.4264,-0.4264,-0.4262,-0.425,-0.425,-0.4249,-0.4249,0,-0.4354,-0.4354,-0.4345,-0.4335,-0.4328,-0.4321,-0.4314,-0.4308,-0.4307,-0.43,-0.4288,-0.4282,-0.4268,-0.4257,-0.4247,-0.4243,-0.4245,-0.4246,-0.4242,-0.4241,-0.4242,-0.4241,-0.4279,-0.4247,-0.4247,-0.4247,-0.4247,-0.4247,-0.4334,-0.4325,-0.4319,-0.4309,-0.4303,-0.4297,-0.4288,-0.4285,-0.4276,-0.4265,-0.4265,-0.4253,-0.4246,-0.4232,-0.4227,-0.4217,-0.4221,-0.4216,-0.4215,-0.4214,-0.4212,-0.4244,-0.4215,-0.4215,-0.4216,-0.4216,-0.4216,0,-0.4306,-0.4302,-0.4293,-0.4283,-0.4275,-0.4278,-0.4271,-0.4263,-0.4252,-0.4246,-0.4237,-0.4223,-0.4213,-0.4208,-0.4197,-0.419,-0.4191,-0.4187,-0.4187,-0.4186,-0.421,-0.4213,-0.4186,-0.4186,-0.4186,-0.4186,-0.4186,-0.4186,-0.4291,-0.4276,-0.4275,-0.4257,-0.4253,-0.4241,-0.4236,-0.423,-0.4224,-0.4209,-0.42,-0.4197,-0.4191,-0.418,-0.417,-0.4169,-0.4164,-0.416,-0.4159,-0.4181,-0.4184,-0.4187,-0.419,-0.4159,-0.4159,-0.4136,-0.4136,-0.4136]},{"header":{"parameterUnit":"m.s-1","parameterCategory":1,"la1":30.2991,"la2":30.254,"lo1":-89.0895,"lo2":-89.0444,"dy":0.0017,"dx":0.0017,"nx":28,"ny":28,"refTime":"2025-01-30T09:00:00:Z","depth":0,"parameterNumber":3,"parameterNumberName":"V-component_of_WINDS"},"data":[0,0,0,0,0,0,0,0,0,0,0,0,0,0,0,0,0,0,0,0,0,0,0,0,0,0,0,0,0,0,0,0,0,0,0,0,0,0,0,0,0,0,0,0,0,0,0,0,0,0,0,0,0,0,0,0,0,0,6.2552,6.2553,0,6.2668,6.2669,6.2671,6.2654,6.2652,6.265,6.2648,6.2763,6.2768,6.2772,0,0,0,0,0,0,0,0,0,0,0,0,0,6.2313,6.2317,6.2551,6.2553,6.2554,6.2668,6.2669,6.2671,6.2654,6.2652,6.265,6.2647,6.2761,6.2767,6.2773,0,0,0,0,0,0,0,0,0,0,0,0,0,6.2421,6.2318,6.2551,6.256,6.2562,6.2668,6.267,6.2671,6.2655,6.2652,6.2649,6.2646,6.2759,6.2766,6.2774,6.2877,0,0,6.2796,6.2799,0,0,0,0,0,0,0,0,6.2415,6.243,6.2557,6.2559,6.2562,6.2644,6.2627,6.274,6.2655,6.2619,6.2648,6.2645,6.2725,6.2735,6.2763,6.2882,6.2887,6.2797,6.2801,6.2804,6.2806,0,0,0,0,0,0,0,6.2408,6.2425,6.2597,6.2559,6.2562,6.2557,6.2569,6.2649,6.2687,6.2622,6.2621,6.2636,6.2726,6.2756,6.2766,6.2889,6.2796,6.2803,6.2807,6.281,6.3103,6.3106,0,0,0,0,0,0,6.2398,6.2419,6.2594,6.2601,6.248,6.2564,6.2578,6.262,6.2686,6.2693,6.2638,6.2634,6.2745,6.2757,6.277,6.2899,6.2804,6.2811,6.2815,6.3099,6.3103,6.3107,0,0,0,0,0,0,6.2393,6.2414,6.2589,6.251,6.2532,6.2571,6.2619,6.2624,6.2654,6.2698,6.2704,6.2662,6.2743,6.2759,6.2852,6.2902,6.2814,6.2821,6.3095,6.3101,6.3105,6.3154,0,0,0,0,0,0,6.2386,6.2412,6.2452,6.2511,6.2536,6.267,6.2622,6.2628,6.2668,6.2664,6.2722,6.2729,6.2742,6.2841,6.2859,6.2911,6.2827,6.3091,6.3098,6.3104,6.3149,6.3161,6.3171,0,0,0,0,0,6.2378,6.2459,6.2454,6.2475,6.2587,6.2673,6.2687,6.2702,6.2672,6.2712,6.2741,6.2727,6.2893,6.2851,6.2871,6.2925,6.3088,6.3096,6.3103,6.3144,6.3158,6.3171,0,0,0,0,0,0,6.2403,6.2467,6.2462,6.2565,6.2614,6.267,6.2721,6.2716,6.2773,6.2767,6.2782,6.2795,6.2889,6.2916,6.2867,6.3031,6.2986,6.2998,6.301,6.3025,6.3035,6.3028,6.2833,0,0,0,0,0,6.2421,6.2486,6.2538,6.2624,6.2649,6.2681,6.2719,6.2727,6.2777,6.2797,6.2832,6.288,6.2944,6.2985,6.3045,6.3152,6.3166,6.3199,6.321,6.3219,6.323,6.3292,6.3309,6.3132,6.3132,6.3132,0,0,6.2458,6.2501,6.2541,6.263,6.2669,6.2737,6.2698,6.277,6.2821,6.2807,6.2898,6.2926,6.2981,6.3082,6.3128,6.3107,6.3282,6.3229,6.3236,6.3242,6.3302,6.3319,6.3333,6.3137,6.3136,6.3136,0,0,6.256,6.2598,6.2677,6.2717,6.2777,6.2799,6.2817,6.2875,6.2894,6.2986,6.2978,6.3037,6.3145,6.3186,6.3221,6.3343,6.3334,6.3362,6.3421,6.3482,6.3496,6.3508,6.3555,6.3571,6.3372,6.3373,6.3373,0,6.2598,6.2701,6.2716,6.2792,6.2832,6.2825,6.2905,6.2943,6.3019,6.3047,6.3023,6.3161,6.3197,6.331,6.334,6.3367,6.3391,6.3356,6.3492,6.3505,6.3517,6.3562,6.3579,6.3376,6.3375,6.3375,6.3375,0,6.2746,6.2818,6.2873,6.2951,6.2997,6.3074,6.3101,6.3146,6.315,6.3174,6.3269,6.3313,6.3384,6.3411,6.3414,6.3525,6.3511,6.3489,6.3445,6.3537,6.358,6.3596,6.3381,6.3379,6.3378,6.3378,0,0,6.2867,6.2955,6.2975,6.3012,6.308,6.3135,6.3212,6.3284,6.3324,6.3376,6.3443,6.3536,6.3518,6.3558,6.3566,6.3618,6.3717,6.3591,6.3592,6.3615,6.3845,6.3863,6.3883,6.371,6.3714,6.3716,6.3842,0,6.2979,6.3117,6.3135,6.3258,6.3326,6.3322,6.3389,6.3438,6.3463,6.3524,6.355,6.3618,6.3587,6.3612,6.3663,6.3694,6.3763,6.3684,6.3773,6.3776,6.3763,6.3904,6.3923,6.4039,6.3858,6.3861,6.3863,0,6.3127,6.3189,6.3319,6.3381,6.341,6.3471,6.3541,6.3598,6.3654,6.3668,6.3715,6.3717,6.3797,6.3749,6.3861,6.3807,6.3844,6.3865,6.387,6.3881,6.3827,6.3922,6.4076,6.4095,6.3889,6.3887,6.3885,0,6.3207,6.3321,6.3416,6.3447,6.352,6.3564,6.3596,6.3649,6.3693,6.3752,6.3781,6.3848,6.3886,6.3938,6.3959,6.3922,6.4071,6.4024,6.4087,6.4087,6.412,6.4118,6.4286,6.4139,6.4139,6.4138,6.4138,0,6.3331,6.3412,6.3453,6.3511,6.3602,6.3622,6.3711,6.3741,6.379,6.3854,6.3852,6.3912,6.3935,6.3999,6.4015,6.4107,6.4123,6.4138,6.4142,6.414,6.4138,6.4166,6.4159,6.4143,6.4142,6.4141,6.414,0,6.3436,6.3466,6.357,6.3632,6.365,6.3715,6.3768,6.3825,6.385,6.3931,6.3951,6.3991,6.4066,6.4092,6.4181,6.4193,6.4301,6.4296,6.4284,6.4285,6.4348,6.4343,6.4541,6.457,6.4402,6.4403,6.4405,0,6.3515,6.3578,6.3649,6.3693,6.3728,6.3798,6.3844,6.3866,6.3913,6.3984,6.4032,6.4108,6.417,6.429,6.4326,6.4396,6.4395,6.446,6.4405,6.4403,6.44,6.4398,6.4405,6.4471,6.4472,6.4474,6.4475,0,6.3653,6.3666,6.3732,6.3806,6.3861,6.3919,6.3974,6.401,6.4041,6.4094,6.4173,6.4221,6.4316,6.4392,6.4464,6.4496,6.4492,6.4492,6.4511,6.4511,6.4502,6.4511,6.4315,6.4487,6.4486,6.4485,6.4485,6.4484,6.3749,6.3806,6.3867,6.3942,6.3987,6.4041,6.4098,6.4132,6.4199,6.428,6.4288,6.4374,6.443,6.4527,6.4564,6.4631,6.4613,6.4639,6.4646,6.4653,6.466,6.449,6.4643,6.4643,6.4643,6.4642,6.4642,0,6.389,6.3929,6.3998,6.4079,6.4139,6.4131,6.4193,6.4244,6.432,6.4374,6.4436,6.4529,6.4603,6.4646,6.4721,6.4766,6.4767,6.4786,6.4784,6.4792,6.467,6.4648,6.4785,6.4785,6.4785,6.4785,6.4785,6.4785,6.397,6.4068,6.4089,6.421,6.4248,6.4335,6.4371,6.4421,6.4465,6.4569,6.4632,6.4661,6.4711,6.479,6.4858,6.4869,6.4898,6.4919,6.4929,6.4815,6.48,6.4786,6.4766,6.4925,6.4925,6.5046,6.5047,6.5048]}]]